Troy, MI

8:01 AM EDT on September 25, 2017 (GMT -0400)
Troy

Weather History for KVLL - October, 2012

Change the Weather History Date:

Saturday, October 6, 2012

  Actual Average (KDET) Record (KDET)
Temperature  
Mean Temperature 45 °F -  
Max Temperature 50 °F 63 °F 91 °F (1963)
Min Temperature 40 °F 47 °F 32 °F (1958)
Degree Days  
Heating Degree Days 20    
Moisture  
Dew Point 36 °F    
Average Humidity 69    
Maximum Humidity 92    
Minimum Humidity 49    
Precipitation  
Precipitation 0.00 in - - ()
Sea Level Pressure  
Sea Level Pressure 30.03 in    
Wind  
Wind Speed 7 mph (WSW)    
Max Wind Speed 16 mph    
Max Gust Speed 23 mph    
Visibility 9 miles    
Events      
Averages and records for this station are not official NWS values.
T = Trace of Precipitation, MM = Missing Value Source: NWS Daily Summary

Daily Weather History Graph

Daily Weather History Graph

Search for Another Location

Airport or City:

Trip Planner

Search our weather history database for the weather conditions in past years. The results will help you decide how hot, cold, wet, or windy it might be!

Date:

Astronomy

Oct. 06, 2012 Rise Set
Actual Time 7:35 AM EDT 7:04 PM EDT
Civil Twilight 7:07 AM EDT 7:32 PM EDT
Nautical Twilight 6:35 AM EDT 8:05 PM EDT
Astronomical Twilight 6:02 AM EDT 8:38 PM EDT
Moon 11:13 PM EDT (10/6) 1:35 PM EDT (10/6)
Length of Visible Light 12h 24m
Length of Day
11h 28m
Waning Gibbous, 65% of the Moon is Illuminated
Oct 6
Waning Gibbous
Oct 8
Last Quarter
Oct 15
New
Oct 21
First Quarter
Oct 29
Full

Hourly Weather History & Observations

Time (EDT) Temp. Windchill Dew Point Humidity Pressure Visibility Wind Dir Wind Speed Gust Speed Precip Events Conditions
12:15 AM 45.7 °F 42.0 °F 42.8 °F 90% 29.98 in 10.0 mi SW 6.9 mph - N/A   Overcast
12:35 AM 45.5 °F 42.5 °F 42.4 °F 89% 29.98 in 10.0 mi WSW 5.8 mph - N/A   Overcast
12:54 AM 45.5 °F 42.5 °F 42.4 °F 89% 29.97 in 10.0 mi WSW 5.8 mph - N/A   Overcast
1:15 AM 45.5 °F 42.5 °F 42.4 °F 89% 29.96 in 10.0 mi WSW 5.8 mph - N/A   Overcast
1:35 AM 45.5 °F 41.8 °F 42.6 °F 90% 29.96 in 10.0 mi WSW 6.9 mph - N/A   Overcast
1:54 AM 45.5 °F 41.3 °F 42.3 °F 88% 29.96 in 10.0 mi WSW 8.1 mph - N/A   Overcast
2:15 AM 45.0 °F 41.8 °F 41.9 °F 89% 29.96 in 10.0 mi WSW 5.8 mph - N/A   Mostly Cloudy
2:54 AM 44.2 °F 41.0 °F 41.4 °F 90% 29.95 in 7.0 mi WSW 5.8 mph - N/A   Scattered Clouds
3:15 AM 44.1 °F 40.1 °F 41.2 °F 90% 29.95 in 7.0 mi WSW 6.9 mph - N/A   Clear
3:35 AM 43.9 °F 41.3 °F 41.0 °F 90% 29.95 in 7.0 mi WSW 4.6 mph - N/A   Clear
3:55 AM 43.3 °F 39.9 °F 40.6 °F 90% 29.95 in 7.0 mi WSW 5.8 mph - N/A   Clear
4:15 AM 43.0 °F 40.3 °F 40.5 °F 91% 29.95 in 5.0 mi SW 4.6 mph - N/A   Clear
4:35 AM 42.8 °F 39.3 °F 40.1 °F 90% 29.95 in 5.0 mi SW 5.8 mph - N/A   Clear
4:55 AM 42.3 °F 38.6 °F 39.7 °F 91% 29.95 in 5.0 mi SW 5.8 mph - N/A   Clear
5:35 AM 41.4 °F 37.6 °F 39.2 °F 92% 29.95 in 5.0 mi SW 5.8 mph - N/A   Clear
5:55 AM 41.0 °F 38.0 °F 38.8 °F 92% 29.96 in 5.0 mi SW 4.6 mph - N/A   Clear
6:15 AM 41.0 °F 37.1 °F 38.7 °F 91% 29.96 in 5.0 mi WSW 5.8 mph - N/A   Clear
6:34 AM 41.0 °F 37.1 °F 38.7 °F 91% 29.96 in 5.0 mi WSW 5.8 mph - N/A   Mostly Cloudy
6:55 AM 40.6 °F 37.5 °F 38.5 °F 92% 29.98 in 5.0 mi WSW 4.6 mph - N/A   Mostly Cloudy
7:15 AM 40.6 °F 37.5 °F 38.3 °F 91% 29.98 in 7.0 mi SW 4.6 mph - N/A   Overcast
7:35 AM 41.0 °F 39.0 °F 38.3 °F 90% 29.98 in 7.0 mi WSW 3.5 mph - N/A   Overcast
7:55 AM 41.0 °F 38.0 °F 38.5 °F 91% 29.99 in 5.0 mi WSW 4.6 mph - N/A   Overcast
8:14 AM 41.2 °F 38.2 °F 38.7 °F 91% 30.00 in 7.0 mi WSW 4.6 mph - N/A   Overcast
8:35 AM 42.1 °F 39.2 °F 38.8 °F 88% 30.01 in 10.0 mi WSW 4.6 mph - N/A   Overcast
8:55 AM 42.6 °F 39.0 °F 39.0 °F 87% 30.01 in 10.0 mi WSW 5.8 mph - N/A   Overcast
9:14 AM 43.3 °F 39.2 °F 39.0 °F 85% 30.02 in 10.0 mi WSW 6.9 mph - N/A   Overcast
9:35 AM 43.7 °F 40.3 °F 37.9 °F 80% 30.02 in 10.0 mi WSW 5.8 mph - N/A   Mostly Cloudy
9:55 AM 44.6 °F 40.2 °F 37.8 °F 77% 30.02 in 10.0 mi WSW 8.1 mph - N/A   Scattered Clouds
10:15 AM 46.4 °F 41.5 °F 35.2 °F 65% 30.02 in 10.0 mi West 10.4 mph 17.3 mph N/A   Scattered Clouds
10:35 AM 46.9 °F - 33.3 °F 59% 30.02 in 10.0 mi West 12.7 mph 20.7 mph N/A   Overcast
10:55 AM 46.8 °F - 33.4 °F 60% 30.03 in 10.0 mi West 13.8 mph 18.4 mph N/A   Overcast
11:15 AM 46.9 °F - 31.6 °F 55% 30.03 in 10.0 mi West 16.1 mph 23.0 mph N/A   Overcast
11:35 AM 46.9 °F - 32.0 °F 56% 30.03 in 10.0 mi West 13.8 mph 20.7 mph N/A   Overcast
11:55 AM 46.9 °F - 30.2 °F 52% 30.03 in 10.0 mi West 10.4 mph 21.9 mph N/A   Overcast
12:15 PM 47.5 °F - 31.1 °F 53% 30.03 in 10.0 mi WNW 10.4 mph 23.0 mph N/A   Overcast
12:35 PM 48.0 °F - 31.8 °F 54% 30.04 in 10.0 mi West 10.4 mph - N/A   Overcast
12:55 PM 49.1 °F - 32.2 °F 52% 30.04 in 10.0 mi West 13.8 mph 19.6 mph N/A   Overcast
1:15 PM 48.4 °F - 31.8 °F 53% 30.04 in 10.0 mi WSW 16.1 mph 21.9 mph N/A   Overcast
1:35 PM 48.2 °F - 32.4 °F 54% 30.04 in 10.0 mi West 11.5 mph 17.3 mph N/A   Overcast
1:55 PM 49.5 °F - 31.3 °F 50% 30.04 in 10.0 mi West 12.7 mph 20.7 mph N/A   Overcast
2:15 PM 49.1 °F - 31.8 °F 51% 30.04 in 10.0 mi West 10.4 mph 18.4 mph N/A   Overcast
2:35 PM 48.9 °F - 31.1 °F 50% 30.04 in 10.0 mi West 11.5 mph 18.4 mph N/A   Overcast
2:55 PM 48.6 °F - 31.3 °F 51% 30.05 in 10.0 mi West 12.7 mph 21.9 mph N/A   Overcast
3:15 PM 49.3 °F - 31.8 °F 51% 30.05 in 10.0 mi West 9.2 mph 19.6 mph N/A   Overcast
3:35 PM 48.6 °F - 32.0 °F 53% 30.05 in 10.0 mi West 11.5 mph 18.4 mph N/A   Overcast
3:55 PM 49.3 °F - 31.5 °F 50% 30.05 in 10.0 mi West 10.4 mph 17.3 mph N/A   Overcast
4:15 PM 49.5 °F - 31.6 °F 50% 30.05 in 10.0 mi West 9.2 mph 23.0 mph N/A   Overcast
4:35 PM 49.5 °F - 31.5 °F 50% 30.05 in 10.0 mi West 13.8 mph 20.7 mph N/A   Overcast
4:54 PM 49.6 °F - 32.0 °F 51% 30.05 in 10.0 mi West 10.4 mph - N/A   Overcast
5:15 PM 49.5 °F - 31.3 °F 50% 30.05 in 10.0 mi West 11.5 mph 20.7 mph N/A   Overcast
5:35 PM 50.2 °F - 32.0 °F 50% 30.05 in 10.0 mi West 13.8 mph - N/A   Overcast
5:55 PM 50.0 °F - 31.5 °F 49% 30.06 in 10.0 mi West 8.1 mph 18.4 mph N/A   Overcast
6:15 PM 49.1 °F - 31.3 °F 50% 30.07 in 10.0 mi West 12.7 mph 17.3 mph N/A   Overcast
6:34 PM 48.7 °F - 31.5 °F 51% 30.07 in 10.0 mi West 9.2 mph 16.1 mph N/A   Overcast
6:55 PM 48.4 °F - 31.6 °F 52% 30.08 in 10.0 mi West 10.4 mph 16.1 mph N/A   Overcast
7:15 PM 48.2 °F - 31.3 °F 52% 30.09 in 10.0 mi West 6.9 mph - N/A   Overcast
7:34 PM 47.7 °F - 32.0 °F 55% 30.09 in 10.0 mi West 4.6 mph - N/A   Mostly Cloudy
7:55 PM 46.4 °F 43.5 °F 32.7 °F 59% 30.10 in 10.0 mi WSW 5.8 mph - N/A   Scattered Clouds
8:15 PM 46.0 °F 43.1 °F 33.1 °F 61% 30.11 in 10.0 mi WSW 5.8 mph - N/A   Scattered Clouds
8:34 PM 46.4 °F 43.5 °F 33.4 °F 61% 30.11 in 10.0 mi WSW 5.8 mph - N/A   Mostly Cloudy
8:55 PM 45.9 °F 43.6 °F 33.8 °F 63% 30.11 in 10.0 mi WSW 4.6 mph - N/A   Mostly Cloudy
9:14 PM 45.9 °F 43.6 °F 34.2 °F 64% 30.11 in 10.0 mi WSW 4.6 mph - N/A   Scattered Clouds
9:35 PM 45.5 °F 42.5 °F 34.7 °F 66% 30.11 in 10.0 mi WSW 5.8 mph - N/A   Mostly Cloudy
9:54 PM 45.9 °F 43.6 °F 34.7 °F 65% 30.11 in 10.0 mi WSW 4.6 mph - N/A   Overcast
10:15 PM 46.0 °F 43.1 °F 35.1 °F 66% 30.12 in 10.0 mi West 5.8 mph - N/A   Overcast
10:35 PM 46.2 °F 43.3 °F 35.2 °F 66% 30.12 in 10.0 mi West 5.8 mph - N/A   Overcast
10:54 PM 45.9 °F 41.7 °F 34.7 °F 65% 30.12 in 10.0 mi WNW 8.1 mph - N/A   Overcast
11:15 PM 45.9 °F 40.8 °F 34.0 °F 63% 30.13 in 10.0 mi WNW 10.4 mph - N/A   Overcast
11:35 PM 45.7 °F 41.5 °F 33.8 °F 63% 30.12 in 10.0 mi WNW 8.1 mph - N/A   Overcast
11:54 PM 45.5 °F 42.5 °F 34.3 °F 65% 30.12 in 10.0 mi WNW 5.8 mph - N/A   Overcast